Погода в Самарканде

Узбекистан     39°39′16″N   66°58′07″E
темп.,
°C
ветер,
м/с
пор.,
м/с
влажн.,
%
обл.,
%
осадки,
мм/ч
давл.,
гПа
погр.,
м
27 февраля, сб
сб2723:00−4вюв226078 0.0 1029133
02:00−3в0157100 0.0 1028148
05:00−3ссз1152100 0.0 1028178
08:00−2с1137100 0.0 1028206
11:000зсз223199 0.0 1029637
14:00+5з452819 0.0 10271290
17:00+5з342910 0.0 10271142
20:00+2св23420 0.0 1029168
28 февраля, вс
вс2823:000в23480 0.0 102891
02:000в22490 0.0 102671
05:000в23480 0.0 102447
08:00+1вюв23480 0.0 102475
11:00+7в22320 0.0 1021384
14:00+11св11250 0.0 1019614
17:00+12св11240 0.0 1018740
20:00+7в344430 0.0 1019107
1 марта, пн
пн123:00+6вюв234165 0.0 102043
02:00+6вюв2338100 0.0 102029
05:00+5вюв3338100 0.0 101932
08:00+6вюв333583 0.0 102039
11:00+13вюв232042 0.0 1019274
14:00+18юз411130 0.0 10172547
17:00+17зюз69150 0.0 10171643
20:00+12юз23300 0.0 101969
2 марта, вт
вт223:00+10ю123135 0.0 102030
02:00+9вюв113467 0.0 102122
05:00+9вюв113583 0.0 102022
08:00+9юв3432100 0.0 102158
11:00+14юв3423100 0.0 1021306
14:00+16сз1119100 0.0 1020850
17:00+15з5523100 0.0 10201953
20:00+12зсз4737100 0.0 1021390
3 марта, ср
ср323:00+11св1248100 0.0 102298
02:00+10с225699 0.0 102154
05:00+9вюв226197 0.0 102170
08:00+9в116385 0.0 102155
11:00+11зсз235592 0.1 10201003
14:00+9ссз4466100 0.1 1019635
17:00+10в226485 0.1 1018481
20:00+8в467422 0.0 1018185